• en Suisse
  • Liste des pays
  • À 7 jours
  • Température de l'eau
  • Carte satellitaire
  • Carte météo
  • Widgets météo
  • user-avatar
    Se connecter

    Météo par heure à Useinovo

    Ce jour, 23 Septembre, Dimanche

    Heure Température Précipitation Vent Pression Humidité
    00:00 +17°C° 0 mm 4 m/s 753 mmHg 72%
    01:00 +17°C° 0 mm 4 m/s 753 mmHg 73%
    02:00 +17°C° 0 mm 4 m/s 753 mmHg 74%
    03:00 +15°C° 0 mm 4 m/s 752 mmHg 75%
    04:00 +15°C° 0 mm 4 m/s 752 mmHg 74%
    05:00 +15°C° 0 mm 5 m/s 751 mmHg 74%
    06:00 +15°C° 0 mm 5 m/s 751 mmHg 74%
    07:00 +16°C° 0 mm 5 m/s 750 mmHg 69%
    08:00 +17°C° 0 mm 6 m/s 749 mmHg 64%
    09:00 +20°C° 0 mm 7 m/s 749 mmHg 60%
    10:00 +21°C° 0 mm 7 m/s 749 mmHg 56%
    11:00 +22°C° 0 mm 8 m/s 748 mmHg 51%
    12:00 +24°C° 0 mm 8 m/s 748 mmHg 47%
    13:00 +23°C° 0.1 mm 8 m/s 748 mmHg 52%
    14:00 +22°C° 0.1 mm 7 m/s 748 mmHg 56%
    15:00 +21°C° 0.1 mm 7 m/s 748 mmHg 60%
    16:00 +17°C° 0.5 mm 6 m/s 748 mmHg 69%
    17:00 +14°C° 0.5 mm 5 m/s 749 mmHg 78%
    18:00 +11°C° 0.5 mm 4 m/s 749 mmHg 86%
    19:00 +10°C° 0.5 mm 4 m/s 749 mmHg 87%
    20:00 +10°C° 0.5 mm 3 m/s 749 mmHg 88%
    21:00 +10°C° 0.5 mm 2 m/s 749 mmHg 89%
    22:00 +10°C° 0.5 mm 2 m/s 750 mmHg 90%
    23:00 +10°C° 0.5 mm 2 m/s 750 mmHg 91%

    Demain, 24 Septembre, Lundi

    Heure Température Précipitation Vent Pression Humidité
    00:00 +10°C° 0.5 mm 2 m/s 750 mmHg 92%
    01:00 +9°C° 0 mm 2 m/s 750 mmHg 93%
    02:00 +9°C° 0 mm 2 m/s 750 mmHg 94%
    03:00 +8°C° 0 mm 2 m/s 751 mmHg 95%
    04:00 +8°C° 0 mm 2 m/s 751 mmHg 95%
    05:00 +8°C° 0 mm 2 m/s 751 mmHg 95%
    06:00 +7°C° 0 mm 2 m/s 751 mmHg 95%
    07:00 +9°C° 0 mm 2 m/s 751 mmHg 89%
    08:00 +10°C° 0 mm 2 m/s 751 mmHg 84%
    09:00 +13°C° 0 mm 2 m/s 751 mmHg 78%
    10:00 +13°C° 0 mm 3 m/s 751 mmHg 70%
    11:00 +16°C° 0 mm 3 m/s 751 mmHg 62%
    12:00 +17°C° 0 mm 4 m/s 751 mmHg 55%
    13:00 +17°C° 0 mm 4 m/s 751 mmHg 54%
    14:00 +17°C° 0 mm 4 m/s 750 mmHg 53%
    15:00 +16°C° 0 mm 5 m/s 750 mmHg 52%
    16:00 +15°C° 0.1 mm 4 m/s 749 mmHg 57%
    17:00 +14°C° 0.1 mm 4 m/s 749 mmHg 63%
    18:00 +13°C° 0.1 mm 4 m/s 748 mmHg 68%
    19:00 +13°C° 0.6 mm 5 m/s 747 mmHg 72%
    20:00 +11°C° 0.6 mm 6 m/s 747 mmHg 76%
    21:00 +11°C° 0.6 mm 7 m/s 746 mmHg 79%
    22:00 +11°C° 1.5 mm 7 m/s 745 mmHg 80%
    23:00 +11°C° 1.5 mm 8 m/s 744 mmHg 81%

    Après-demain, 25 Septembre, Mardi

    Heure Température Précipitation Vent Pression Humidité
    00:00 +11°C° 1.5 mm 9 m/s 743 mmHg 82%
    01:00 +11°C° 0.5 mm 9 m/s 742 mmHg 82%
    02:00 +11°C° 0.5 mm 9 m/s 741 mmHg 82%
    03:00 +11°C° 0.5 mm 9 m/s 741 mmHg 82%
    04:00 +10°C° 0.7 mm 8 m/s 741 mmHg 82%
    05:00 +10°C° 0.7 mm 7 m/s 740 mmHg 83%
    06:00 +10°C° 0.7 mm 6 m/s 740 mmHg 83%
    07:00 +9°C° 0 mm 7 m/s 740 mmHg 81%
    08:00 +9°C° 0 mm 7 m/s 741 mmHg 79%
    09:00 +9°C° 0 mm 7 m/s 741 mmHg 77%
    10:00 +9°C° 0 mm 7 m/s 741 mmHg 76%
    11:00 +10°C° 0 mm 7 m/s 742 mmHg 74%
    12:00 +10°C° 0 mm 7 m/s 742 mmHg 72%
    13:00 +10°C° 0.1 mm 7 m/s 743 mmHg 72%
    14:00 +10°C° 0.1 mm 7 m/s 743 mmHg 71%
    15:00 +10°C° 0.1 mm 7 m/s 743 mmHg 70%
    16:00 +9°C° 0 mm 7 m/s 744 mmHg 70%
    17:00 +9°C° 0 mm 7 m/s 744 mmHg 71%
    18:00 +9°C° 0 mm 7 m/s 745 mmHg 71%
    19:00 +8°C° 0 mm 7 m/s 745 mmHg 71%
    20:00 +8°C° 0 mm 7 m/s 746 mmHg 71%
    21:00 +6°C° 0 mm 7 m/s 746 mmHg 72%
    22:00 +6°C° 0 mm 7 m/s 747 mmHg 73%
    23:00 +6°C° 0 mm 7 m/s 747 mmHg 74%

    26 Septembre, Mercredi

    Heure Température Précipitation Vent Pression Humidité
    00:00 +6°C° 0 mm 7 m/s 748 mmHg 76%
    01:00 +5°C° 0.1 mm 6 m/s 748 mmHg 77%
    02:00 +5°C° 0.1 mm 6 m/s 749 mmHg 78%
    03:00 +5°C° 0.1 mm 6 m/s 750 mmHg 80%
    04:00 +5°C° 0.2 mm 6 m/s 750 mmHg 81%
    05:00 +5°C° 0.2 mm 5 m/s 751 mmHg 82%
    06:00 +5°C° 0.2 mm 5 m/s 752 mmHg 83%
    07:00 +5°C° 0.1 mm 5 m/s 752 mmHg 80%
    08:00 +5°C° 0.1 mm 5 m/s 753 mmHg 78%
    09:00 +5°C° 0.1 mm 5 m/s 753 mmHg 75%
    10:00 +5°C° 0 mm 5 m/s 754 mmHg 69%
    11:00 +6°C° 0 mm 5 m/s 754 mmHg 63%
    12:00 +7°C° 0 mm 5 m/s 755 mmHg 57%
    13:00 +8°C° 0 mm 5 m/s 755 mmHg 53%
    14:00 +8°C° 0 mm 5 m/s 755 mmHg 48%
    15:00 +9°C° 0 mm 5 m/s 755 mmHg 44%
    16:00 +8°C° 0 mm 4 m/s 755 mmHg 52%
    17:00 +7°C° 0 mm 4 m/s 755 mmHg 61%
    18:00 +7°C° 0 mm 3 m/s 756 mmHg 69%
    19:00 +7°C° 0 mm 3 m/s 756 mmHg 73%
    20:00 +5°C° 0 mm 3 m/s 755 mmHg 78%
    21:00 +4°C° 0 mm 3 m/s 755 mmHg 82%
    22:00 +4°C° 0 mm 3 m/s 755 mmHg 81%
    23:00 +5°C° 0 mm 4 m/s 755 mmHg 79%

    27 Septembre, Jeudi

    Heure Température Précipitation Vent Pression Humidité
    00:00 +5°C° 0 mm 4 m/s 754 mmHg 77%
    01:00 +5°C° 0.2 mm 5 m/s 754 mmHg 78%
    02:00 +5°C° 0.2 mm 5 m/s 753 mmHg 79%
    03:00 +5°C° 0.2 mm 6 m/s 752 mmHg 79%
    04:00 +5°C° 0.4 mm 7 m/s 752 mmHg 81%
    05:00 +5°C° 0.4 mm 7 m/s 751 mmHg 83%
    06:00 +5°C° 0.4 mm 8 m/s 750 mmHg 85%
    07:00 +5°C° 0.7 mm 8 m/s 749 mmHg 85%
    08:00 +5°C° 0.7 mm 8 m/s 749 mmHg 84%
    09:00 +5°C° 0.7 mm 8 m/s 748 mmHg 84%
    10:00 +5°C° 0.9 mm 8 m/s 748 mmHg 84%
    11:00 +5°C° 0.9 mm 8 m/s 748 mmHg 85%
    12:00 +6°C° 0.9 mm 8 m/s 747 mmHg 85%
    13:00 +6°C° 0.5 mm 8 m/s 747 mmHg 85%
    14:00 +6°C° 0.5 mm 7 m/s 747 mmHg 85%
    15:00 +8°C° 0.5 mm 7 m/s 747 mmHg 85%
    16:00 +8°C° 0.4 mm 7 m/s 746 mmHg 86%
    17:00 +8°C° 0.4 mm 7 m/s 746 mmHg 86%
    18:00 +8°C° 0.4 mm 7 m/s 746 mmHg 87%
    19:00 +8°C° 0.4 mm 7 m/s 745 mmHg 88%
    20:00 +8°C° 0.4 mm 7 m/s 745 mmHg 88%
    21:00 +8°C° 0.4 mm 7 m/s 744 mmHg 88%
    22:00 +8°C° 0.4 mm 7 m/s 744 mmHg 88%
    23:00 +8°C° 0.4 mm 7 m/s 744 mmHg 89%

    28 Septembre, Vendredi

    Heure Température Précipitation Vent Pression Humidité
    00:00 +8°C° 0.4 mm 7 m/s 744 mmHg 89%
    01:00 +9°C° 0.3 mm 6 m/s 743 mmHg 90%
    02:00 +9°C° 0.3 mm 6 m/s 743 mmHg 90%
    03:00 +9°C° 0.3 mm 5 m/s 743 mmHg 91%
    04:00 +9°C° 0.4 mm 5 m/s 743 mmHg 91%
    05:00 +9°C° 0.4 mm 5 m/s 743 mmHg 91%
    06:00 +8°C° 0.4 mm 5 m/s 743 mmHg 90%
    07:00 +9°C° 0.1 mm 5 m/s 744 mmHg 86%
    08:00 +9°C° 0.1 mm 6 m/s 744 mmHg 81%
    09:00 +9°C° 0.1 mm 6 m/s 745 mmHg 77%
    10:00 +10°C° 0.1 mm 7 m/s 745 mmHg 71%
    11:00 +11°C° 0.1 mm 7 m/s 746 mmHg 66%
    12:00 +12°C° 0.1 mm 7 m/s 746 mmHg 60%
    13:00 +12°C° 0 mm 7 m/s 746 mmHg 57%
    14:00 +12°C° 0 mm 7 m/s 746 mmHg 54%
    15:00 +12°C° 0 mm 7 m/s 746 mmHg 50%
    16:00 +11°C° 0 mm 6 m/s 746 mmHg 54%
    17:00 +10°C° 0 mm 5 m/s 746 mmHg 58%
    18:00 +11°C° 0 mm 4 m/s 746 mmHg 62%
    19:00 +10°C° 0.1 mm 4 m/s 746 mmHg 66%
    20:00 +10°C° 0.1 mm 4 m/s 747 mmHg 69%
    21:00 +8°C° 0.1 mm 4 m/s 747 mmHg 72%
    22:00 +7°C° 0 mm 4 m/s 747 mmHg 73%
    23:00 +6°C° 0 mm 4 m/s 747 mmHg 73%
    Voir plus